DECAYED

COSMOS 2251 DEB, 35893 (Decayed)

Orbit data source: Space-Track

COSMOS 2251 DEB, 35893 was space debris in LEO originally from a launch on Wed, 16 Jun 1993 UTC launched from the Plesetsk Missile And Space Complex (PKMTR). The debris from Iridium 33, an American commercial communications satellite, has been tracked extensively since its accidental collision with the defunct Russian satellite Cosmos 2251 in 2009. This event, occurring at high speed in low Earth orbit (LEO), generated thousands of pieces of space debris, significantly increasing the risk of further collisions. The Iridium 33 debris cloud has impacted space traffic management and orbital debris mitigation strategies, making it a subject of ongoing study in space situational awareness.

Not visible in the next 10 days
Identifier
35893, 1993-036AUG
Orbit
Decayed
Country
Flag of CISCIS
Related business
Manufacturer
Unknown
Mission
Decayed spacecraft
Bus & Motor
Unknown
Mass
Unknown
Launch date (UTC)
1993-06-16 (33 years ago)
Launch vehicle
Unknown
Launch site
Plesetsk Missile And Space Complex (PKMTR)
Object type
Payload
Rocket body
Debris
Shape & HBR
Unknown shape, 0.1 m
Radar Cross Section
Small (<0.1 m²)

Expand to show TLE details & history
Last TLE update: 1 year ago

TLE from 1 year ago
0 COSMOS 2251 DEB
1 35893U 93036AUG 25101.27109527  .00765588  00000-0  16848-1 0  9998
2 35893  73.6193 293.3282 0023455 188.4711 171.6103 15.41136169623835
Epoch: 2025-04-11T06:30Z
TLE epoch observation values (Epoch: 2025-04-11T06:30:22.631Z)
Latitude
0.00001°
Longitude
-3.9976°
Altitude
461.298 km
Speed
7.627 km/s
True Right ascension
19h 33m 18s
True Declination
0° 00' 00"
Sunlit
Object was in daylight at epoch
Visualization orbit readout
Latitude
Unknown
Longitude
Unknown
Altitude
Unknown
Speed
Unknown
Apparent Right ascension
Unknown
Apparent Declination
Unknown
Sunlit
N/A
Visualization observer readout
Local Sidereal Time
05:01:13
Azimuth
Unknown
Elevation
Unknown
Doppler factor
Unknown
Orbital elements
Apogee altitude
456.294 km
Perigee altitude
424.309 km
Semi-major axis
6,818.439 km
Eccentricity
0.00235
Inclination
73.6193°
RAAN
293.3282°
Arg. of periapsis
188.4711°
True anomaly
171.6494°
Mean anomaly
171.6103°
Eccentric anomaly
171.62986°
Mean motion
3.85492 °/min
Orbital period
93.39 mins
BSTAR
0.016848

Documentation

Showing up to 5 results
|